Regional Weather Roundup
Issued by NWS Cleveland, OH

Home | Current Version | Previous Version | Graphics & Text | Print | Product List | Glossary On
Versions: 1 2 3 4 5 6 7 8 9 10 11 12 13 14 15 16 17 18 19 20 21 22 23 24 25 26 27 28 29 30 31 32 33 34 35 36 37 38 39 40 41 42 43 44 45 46 47 48 49 50
599
ASUS41 KCLE 130110
RWRCLE
OHIO REGIONAL WEATHER ROUNDUP
NATIONAL WEATHER SERVICE CLEVELAND, OH
800 PM EST TUE DEC 12 2017

NOTE: "FAIR" INDICATES FEW OR NO CLOUDS BELOW 12,000 FEET WITH NO
SIGNIFICANT WEATHER AND/OR OBSTRUCTIONS TO VISIBILITY.

OHZ001>008-015>018-024>027-034-035-043-044-130200-
   NORTHWEST OHIO

CITY           SKY/WX    TMP DP  RH WIND       PRES   REMARKS
DEFIANCE       CLOUDY    20   9  62 NW13      29.96R WCI   7
FINDLAY        CLOUDY    20   7  57 NW15      29.92S WCI   6
TOLEDO EXPRESS CLEAR     17   4  56 W12       29.93R WCI   4
TOLEDO EXEC    PTCLDY    17   4  56 NW9       29.93S WCI   6
LIMA           CLOUDY    20  13  74 NW15      29.94R WCI   6
$$

OHZ009>014-019>023-028>033-038-089-130200-
   NORTHEAST OHIO

CITY           SKY/WX    TMP DP  RH WIND       PRES   REMARKS
CLE-HOPKINS    CLOUDY    20   4  50 NW20G31   29.87S WCI   4
CLE-LAKEFRONT  FLURRIES  21   7  54 NW28G39   29.85R WCI   3
CUY CO. ARPT   LGT SNOW  19   7  58 W22G32    29.83S WCI   3
LORAIN-ELYRIA  CLOUDY    19   4  51 N17G26    29.87S WCI   4
ASHTABULA      CLOUDY    17   5  59 W12G31    29.79S WCI   4
AKRON-CANTON   LGT SNOW  16  11  80 W12       29.82S VSB 1   WCI   3
WOOSTER        MOCLDY    14   4  64 W13       29.86R WCI   0
MANSFIELD      MOCLDY    15   3  59 W9        29.86S WCI   3
YOUNGSTOWN     FLURRIES  15   8  73 W8        29.78S WCI   4
$$

OHZ042-051>053-060>062-070>072-077>081-130200-
  SOUTHWEST OHIO

CITY           SKY/WX    TMP DP  RH WIND       PRES   REMARKS
CINC-COVINGTON PTCLDY    22   9  57 NW8       30.00R WCI  12
CINC-LUNKEN    MOCLDY    26   8  46 NW9G17    30.04R WCI  17
HAMILTON       CLEAR     23   9  55 NW14      30.03R WCI  11
DAYTON         CLOUDY    19  11  70 NW10      29.98R WCI   7
WRIGHT-PAT AFB CLOUDY    21   9  59 W9        29.97R WCI  11
DAYTON GENERAL CLOUDY    22  10  60 NW8       29.97S WCI  12
WILMINGTON     CLOUDY    21  11  65 NW14G23   29.96R WCI   8
$$

OHZ036-037-039>041-045>050-054>059-063>069-073>076-082>088-130200-
  CENTRAL AND SOUTHEAST OHIO

CITY           SKY/WX    TMP DP  RH WIND       PRES   REMARKS
COLUMBUS       LGT SNOW  21  16  81 NW10      29.93R WCI  10
OSU AIRPORT    LGT SNOW  20  15  81 W14       29.93S WCI   7
BOLTON FIELD   NOT AVBL
RICKENBACK AFB LGT SNOW  20  18  92 NW10      29.95R WCI   9
NEWARK         CLOUDY    21  11  65 W8        29.91R WCI  11
MARION         CLOUDY    20   6  55 NW20G26   29.91S WCI   4
LANCASTER      LGT SNOW  20  15  81 NW13G21   29.93R WCI   7
ZANESVILLE     CLOUDY    21   6  52 NW15      29.90R WCI   8
NEW PHILLY     NOT AVBL
$$




USA.gov is the U.S. government's official web portal to all federal, state and local government web resources and services.